Regional Weather Roundup
Issued by NWS

Home | Current Version | Previous Version | Text Only | Print | Product List | Glossary On
Versions: 1 2 3 4 5 6 7 8 9 10 11 12 13 14 15 16 17 18 19 20 21 22 23 24 25 26 27 28 29 30 31 32 33 34 35 36 37 38 39 40 41 42 43 44 45 46 47 48 49 50
000
ASUS44 KJAN 220610
RWRMS

MISSISSIPPI HOURLY WEATHER ROUNDUP
NATIONAL WEATHER SERVICE JACKSON MS
1200 AM CST SUN JAN 22 2017

NOTE: "FAIR: INDICATES FEW OR NO CLOUDS BELOW 12,000 FEET WITH NO
SIGNIFICANT WEATHER AND/OR OBSTRUCTIONS TO VISIBILITY.

MSZ001>002-007>008-010>013-018>021-025>028-034>036-220700-
NORTHWEST MISSISSIPPI

CITY           SKY/WX    TMP DP  RH WIND       PRES   REMARKS
BATESVILLE     TSTM      58  55  88 SW16G33   29.49R
CLARKSDALE     CLOUDY    57  57 100 NW6       29.42F FOG
CLEVELAND      MOCLDY    55  55 100 S3        29.43F
GREENWOOD      LGT RAIN  57  53  86 SE7       29.44F
6HR MIN TEMP:  57; 6HR MAX TEMP:  65; 6HR PCP:  0.19;

GREENVILLE     CLOUDY    55  52  89 S6        29.45F
6HR MIN TEMP:  55; 6HR MAX TEMP:  67; 6HR PCP:  0.47;

OXFORD         MOCLDY    59  54  82 S14G22    29.51R THUNDER
TUNICA         LGT RAIN  59  55  88 SE3       29.45R
WINONA         RAIN      58  55  88 W12G31    29.52R
$$

MSZ003>006-009-014>017-022>024-029>033-037>039-220700-
NORTHEAST MISSISSIPPI

CITY           SKY/WX    TMP DP  RH WIND       PRES   REMARKS
COLUMBUS AFB   NOT AVBL
CORINTH        FAIR      57  54  88 E6        29.46F
GOLDN TRIANGLE CLOUDY    61  55  82 S9        29.45S
STARKVILLE     HVY RAIN  59  59 100 W6G16     29.54R
TUPELO         CLOUDY    59  55  87 SE12      29.48R THUNDER FOG
6HR MIN TEMP:  58; 6HR MAX TEMP:  64;

$$

MSZ040-058-220700-
CENTRAL MISSISSIPPI

CITY           SKY/WX    TMP DP  RH WIND       PRES   REMARKS
JACKSON INTL   PTCLDY    60  55  83 S9        29.47S
6HR MIN TEMP:  59; 6HR MAX TEMP:  68; 6HR PCP:  0.49;

JACKSON HAWKNS PTCLDY    60  54  80 SW7       29.47R
6HR MIN TEMP:  60; 6HR MAX TEMP:  69; 6HR PCP:  0.39;

MADISON        FAIR     N/A N/A N/A SW3       29.47R
MERIDIAN KEY   CLOUDY    62  60  93 MISG      29.49F
6HR MIN TEMP:  62; 6HR MAX TEMP:  69; 6HR PCP:  0.18;

MERIDIAN NAS   CLOUDY    60  55  83 E6        29.47F THUNDER
6HR MIN TEMP:  60; 6HR MAX TEMP:  65; 6HR PCP:  0.76;

RAYMOND        MOCLDY    61  57  88 SW5       29.47S
VICKSBURG VKS  CLOUDY    61  57  88 CALM      29.47R
$$

MSZ059>079-220700-
SOUTH MISSISSIPPI

CITY           SKY/WX    TMP DP  RH WIND       PRES   REMARKS
BROOKHAVEN     FAIR      57  55  94 CALM      29.51S FOG
HATTIESBURG    CLOUDY    67  64  90 N3        29.52R
6HR MIN TEMP:  64; 6HR MAX TEMP:  70; 6HR PCP:  0.09;

LAUREL         FAIR      65  65 100 CALM      29.50S
MCCOMB         CLOUDY    64  62  93 CALM      29.49S FOG
6HR MIN TEMP:  64; 6HR MAX TEMP:  68;

NATCHEZ        CLEAR     66  63  88 W9        29.48S
6HR MIN TEMP:  61; 6HR MAX TEMP:  70; 6HR PCP:  0.50;

PINE BELT      CLEAR     64  59  82 CALM      29.53R
6HR MIN TEMP:  63; 6HR MAX TEMP:  70;

$$

MSZ080>082-220700-
COASTAL MISSISSIPPI

CITY           SKY/WX    TMP DP  RH WIND       PRES   REMARKS
BILOXI         CLOUDY    68  67  98 SW14G23   29.52S FOG
6HR MIN TEMP:  68; 6HR MAX TEMP:  70; 6HR PCP:  0.16;

PASCAGOULA     CLOUDY    70  67  90 SW10G18   29.54S FOG
6HR MIN TEMP:  67; 6HR MAX TEMP:  73; 6HR PCP:  0.31;

GULFPORT       CLOUDY    70  69  97 SW8       29.53S FOG
6HR MIN TEMP:  68; 6HR MAX TEMP:  71; 6HR PCP:  0.11;

$$

LAZ007>009-015>016-023>026-220700-
NORTHEAST LOUISIANA

CITY           SKY/WX    TMP DP  RH WIND       PRES   REMARKS
BASTROP        FOG       54  53  98 CALM      29.46S VSB 1
TALLULAH/VBURG MOCLDY    64  58  80 N3        29.47R
6HR MIN TEMP:  62; 6HR MAX TEMP:  68;

VIDALIA        FAIR      65  64  96 W6        29.51S FOG
$$



USA.gov is the U.S. government's official web portal to all federal, state and local government web resources and services.